Skip Page Navigation
NASA JPL Caltech
NASA Logo - Jet Propulsion Laboratory + View the NASA Portal
+ Center for Near-Earth Object Studies
JPL Home Earth Solar System Stars & Galaxies Technology
JPL Solar System Dynamics
BODIES ORBITS EPHEMERIDES TOOLS PHYSICAL DATA DISCOVERY FAQ SITE MAP
JPL Small-Body Database Browser
Search: [ help ]  
150992 (2001 UD13)
Classification: Main-belt Asteroid          SPK-ID: 2150992
Ephemeris | Orbit Diagram | Orbital Elements | Mission Design | Physical Parameters | Discovery Circumstances | Close-Approach Data ]

[ show orbit diagram ]
Orbital Elements at Epoch 2459200.5 (2020-Dec-17.0) TDB
Reference: JPL 23 (heliocentric ecliptic J2000)
 Element Value Uncertainty (1-sigma)   Units 
e .07565421201977339 7.7022e-08  
a 2.535317696906266 1.3598e-08 au
q 2.343510234327035 2.0115e-07 au
i 3.113291740395282 5.5785e-06 deg
node 186.4793361566614 7.5821e-05 deg
peri 187.0007018050576 8.036e-05 deg
M 300.2397661575665 2.6594e-05 deg
tp 2459445.269215622502
(2021-Aug-18.76921562)
0.00010921 TDB
period 1474.507577337026
4.04
1.1863e-05
3.248e-08
d
yr
n .2441493048480383 1.9642e-09 deg/d
Q 2.727125159485496 1.4627e-08 au
  Orbit Determination Parameters
   # obs. used (total)      725  
   data-arc span      6847 days (18.75 yr)  
   first obs. used      2001-10-22  
   last obs. used      2020-07-21  
   planetary ephem.      DE441  
   SB-pert. ephem.      SB441-N16  
   condition code      0  
   norm. resid. RMS      .57691  
   source      ORB  
   producer      Otto Matic  
   solution date      2021-Apr-13 19:20:55  

Additional Information
 Earth MOID = 1.34217 au 
 Jupiter MOID = 2.61069 au 
 T_jup = 3.442 
[ show covariance matrix ]

Ephemeris | Orbit Diagram | Orbital Elements | Mission Design | Physical Parameters | Discovery Circumstances | Close-Approach Data ]

Physical Parameter Table
Parameter Symbol Value Units Sigma Reference Notes
absolute magnitude H 15.62   n/a E2021B55  

150992 (2001 UD13)          Discovered 2001-Oct-24 by Yeung, W. K. Y. at Desert Eagle
Reference: 20070303/Numbers.arcLast Updated: 2007-03-07

[ show close-approach data ]
Alternate Designations
 2001 UD13 = 2003 FK56 
Ephemeris | Orbit Diagram | Orbital Elements | Mission Design | Physical Parameters | Discovery Circumstances | Close-Approach Data ]
ABOUT SSD CREDITS/AWARDS PRIVACY/COPYRIGHT GLOSSARY LINKS
FirstGov 2021-Apr-16 21:16 UT
(server date/time)  
NASA Home Page
Site Manager:   Ryan S. Park
Webmaster  Alan B. Chamberlin